EWG5WK EDDH-EDDS

Flight info

Callsign EWG5WK
Flight time 0h 58m
Altitude 30000
Route AMLUH2G AMLUH M852 DENIX Z113 SAS P605 TOSTU T726 LBU
Aircraft A319/M-SDE3FGHIRWY/LB1

Departure

Time 2026-04-23 19:28
Airport Hamburg Helmut Schmidt Airport (EDDH)

Arrival

Time 2026-04-23 20:27
Airport Stuttgart Airport (EDDS)
Time Latitude Longitude Altitude Speed Heading
2026-04-23 18:52 53.63191 9.99919 49 ft 0 kts 320°
2026-04-23 19:18 53.63181 9.99933 47 ft 4 kts 315°
2026-04-23 19:18 53.63166 9.99968 46 ft 4 kts 285°
2026-04-23 19:18 53.63166 10.00006 46 ft 3 kts 232°
2026-04-23 19:19 53.63168 10.00011 46 ft 0 kts 230°
2026-04-23 19:21 53.63161 9.99997 45 ft 4 kts 230°
2026-04-23 19:22 53.63134 9.99942 47 ft 8 kts 230°
2026-04-23 19:22 53.63076 9.99889 48 ft 12 kts 167°
2026-04-23 19:22 53.62934 9.99993 48 ft 10 kts 188°
2026-04-23 19:23 53.62897 9.99916 48 ft 0 kts 243°
2026-04-23 19:26 53.62894 9.99904 46 ft 4 kts 243°
2026-04-23 19:26 53.62873 9.99833 45 ft 10 kts 243°
2026-04-23 19:27 53.62877 9.99738 44 ft 0 kts 329°
2026-04-23 19:27 53.63011 9.99621 45 ft 50 kts 333°
2026-04-23 19:28 53.64322 9.98489 152 ft 150 kts 328°
2026-04-23 19:28 53.66321 9.96830 1406 ft 168 kts 332°
2026-04-23 19:29 53.67420 9.95881 2061 ft 183 kts 333°
2026-04-23 19:29 53.69864 9.94671 3871 ft 192 kts 358°
2026-04-23 19:30 53.72543 9.95157 5631 ft 209 kts 27°
2026-04-23 19:30 53.73493 9.97122 6519 ft 227 kts 58°
2026-04-23 19:30 53.74182 10.02476 8254 ft 249 kts 92°
2026-04-23 19:31 53.73665 10.05379 8910 ft 274 kts 113°
2026-04-23 19:31 53.72648 10.08283 9382 ft 299 kts 118°
2026-04-23 19:31 53.71580 10.11367 10143 ft 308 kts 116°
2026-04-23 19:31 53.70480 10.14571 10632 ft 328 kts 120°
2026-04-23 19:32 53.69005 10.17702 10985 ft 352 kts 133°
2026-04-23 19:32 53.67070 10.20321 11655 ft 362 kts 147°
2026-04-23 19:32 53.64790 10.22188 12432 ft 367 kts 160°
2026-04-23 19:32 53.62320 10.23382 13233 ft 371 kts 165°
2026-04-23 19:33 53.59819 10.24524 14025 ft 374 kts 165°
2026-04-23 19:33 53.57293 10.25679 14714 ft 377 kts 165°
2026-04-23 19:33 53.52194 10.28012 16122 ft 382 kts 165°
2026-04-23 19:34 53.49612 10.29191 16813 ft 385 kts 165°
2026-04-23 19:34 53.47013 10.30375 17508 ft 388 kts 165°
2026-04-23 19:34 53.41755 10.32773 18795 ft 396 kts 165°
2026-04-23 19:35 53.39086 10.33983 19374 ft 399 kts 165°
2026-04-23 19:35 53.36392 10.35193 19966 ft 402 kts 165°
2026-04-23 19:35 53.33678 10.36407 20568 ft 405 kts 165°
2026-04-23 19:35 53.30946 10.37629 21155 ft 408 kts 165°
2026-04-23 19:36 53.28223 10.38847 21726 ft 412 kts 165°
2026-04-23 19:36 53.25449 10.40087 22330 ft 414 kts 165°
2026-04-23 19:36 53.22655 10.41332 22903 ft 417 kts 165°
2026-04-23 19:36 53.19842 10.42584 23459 ft 420 kts 165°
2026-04-23 19:37 53.17002 10.43848 23971 ft 424 kts 165°
2026-04-23 19:37 53.15076 10.44686 24281 ft 425 kts 167°
2026-04-23 19:37 53.11175 10.45458 24870 ft 428 kts 180°
2026-04-23 19:37 53.08193 10.45226 25321 ft 430 kts 184°
2026-04-23 19:38 53.05197 10.44918 25789 ft 433 kts 184°
2026-04-23 19:38 53.03165 10.44714 26091 ft 434 kts 184°
2026-04-23 19:38 53.00138 10.44415 26543 ft 436 kts 184°
2026-04-23 19:38 52.97094 10.44117 26969 ft 439 kts 184°
2026-04-23 19:39 52.94073 10.43821 27391 ft 442 kts 184°
2026-04-23 19:39 52.91000 10.43520 27822 ft 444 kts 184°
2026-04-23 19:39 52.87906 10.43215 28257 ft 447 kts 183°
2026-04-23 19:39 52.84797 10.42911 28700 ft 449 kts 183°
2026-04-23 19:40 52.81668 10.42608 29104 ft 451 kts 183°
2026-04-23 19:40 52.78526 10.42303 29231 ft 448 kts 183°
2026-04-23 19:40 52.75467 10.42001 29251 ft 435 kts 184°
2026-04-23 19:41 52.69675 10.39690 29254 ft 427 kts 204°
2026-04-23 19:41 52.64649 10.34553 29255 ft 426 kts 217°
2026-04-23 19:42 52.59835 10.28872 29272 ft 426 kts 217°
2026-04-23 19:42 52.55006 10.23203 29271 ft 426 kts 216°
2026-04-23 19:43 52.50180 10.17549 29270 ft 426 kts 216°
2026-04-23 19:43 52.45346 10.11915 29272 ft 426 kts 216°
2026-04-23 19:44 52.40545 10.06333 29264 ft 426 kts 216°
2026-04-23 19:44 52.35712 10.00716 29269 ft 426 kts 216°
2026-04-23 19:45 52.30882 9.95114 29263 ft 426 kts 215°
2026-04-23 19:45 52.25889 9.89962 29248 ft 425 kts 204°
2026-04-23 19:46 52.20227 9.87452 29260 ft 422 kts 185°
2026-04-23 19:46 52.14390 9.86348 29267 ft 422 kts 185°
2026-04-23 19:47 52.08543 9.85199 29269 ft 423 kts 186°
2026-04-23 19:47 52.02707 9.84054 29264 ft 423 kts 186°
2026-04-23 19:48 51.96867 9.82916 29260 ft 423 kts 186°
2026-04-23 19:48 51.91028 9.81790 29261 ft 422 kts 186°
2026-04-23 19:49 51.85188 9.80660 29264 ft 422 kts 185°
2026-04-23 19:49 51.79356 9.79529 29266 ft 422 kts 185°
2026-04-23 19:50 51.73523 9.78419 29262 ft 422 kts 185°
2026-04-23 19:50 51.67692 9.77324 29260 ft 421 kts 185°
2026-04-23 19:51 51.61869 9.76226 29267 ft 421 kts 185°
2026-04-23 19:51 51.56053 9.75125 29268 ft 420 kts 185°
2026-04-23 19:52 51.50243 9.74018 29265 ft 420 kts 185°
2026-04-23 19:52 51.44439 9.72939 29263 ft 419 kts 185°
2026-04-23 19:53 51.38637 9.72005 29261 ft 419 kts 184°
2026-04-23 19:53 51.32869 9.71108 29259 ft 419 kts 184°
2026-04-23 19:54 51.27064 9.70187 29261 ft 419 kts 184°
2026-04-23 19:54 51.21253 9.69240 29263 ft 419 kts 183°
2026-04-23 19:55 51.15434 9.69248 29269 ft 418 kts 176°
2026-04-23 19:55 51.09621 9.69444 29272 ft 418 kts 176°
2026-04-23 19:56 51.03803 9.69628 29266 ft 417 kts 176°
2026-04-23 19:56 50.97994 9.69813 29264 ft 417 kts 176°
2026-04-23 19:57 50.92193 9.69989 29270 ft 417 kts 176°
2026-04-23 19:57 50.86397 9.70170 29271 ft 416 kts 176°
2026-04-23 19:58 50.80620 9.70681 29269 ft 415 kts 173°
2026-04-23 19:58 50.74859 9.71380 29268 ft 415 kts 173°
2026-04-23 19:59 50.69095 9.72038 29266 ft 415 kts 174°
2026-04-23 19:59 50.63327 9.72635 29267 ft 415 kts 174°
2026-04-23 20:00 50.57565 9.73209 29262 ft 415 kts 174°
2026-04-23 20:00 50.51800 9.73783 29265 ft 415 kts 174°
2026-04-23 20:01 50.46041 9.74369 29271 ft 415 kts 174°
2026-04-23 20:01 50.40276 9.74957 29280 ft 415 kts 173°
2026-04-23 20:02 50.34536 9.75546 29263 ft 416 kts 174°
2026-04-23 20:02 50.28759 9.76128 29258 ft 416 kts 174°
2026-04-23 20:03 50.22972 9.76699 29269 ft 417 kts 173°
2026-04-23 20:03 50.17180 9.77275 29263 ft 417 kts 173°
2026-04-23 20:04 50.11383 9.77860 29262 ft 417 kts 173°
2026-04-23 20:04 50.05583 9.78430 29262 ft 418 kts 174°
2026-04-23 20:05 49.99778 9.78840 29270 ft 418 kts 175°
2026-04-23 20:05 49.93976 9.79169 29278 ft 417 kts 175°
2026-04-23 20:06 49.88187 9.79512 29275 ft 416 kts 174°
2026-04-23 20:06 49.82406 9.79877 29267 ft 416 kts 174°
2026-04-23 20:06 49.79517 9.80066 29010 ft 416 kts 174°
2026-04-23 20:07 49.76621 9.80253 28738 ft 415 kts 174°
2026-04-23 20:07 49.73749 9.80436 28411 ft 410 kts 174°
2026-04-23 20:07 49.70909 9.80615 27945 ft 407 kts 174°
2026-04-23 20:07 49.68086 9.80774 27465 ft 405 kts 175°
2026-04-23 20:08 49.65280 9.80909 27017 ft 401 kts 175°
2026-04-23 20:08 49.62493 9.81026 26568 ft 399 kts 175°
2026-04-23 20:08 49.59780 9.81361 26149 ft 394 kts 167°
2026-04-23 20:08 49.57093 9.82092 25717 ft 391 kts 166°
2026-04-23 20:09 49.54391 9.82844 25294 ft 389 kts 166°
2026-04-23 20:09 49.51770 9.83573 24877 ft 386 kts 166°
2026-04-23 20:09 49.49128 9.84304 24456 ft 384 kts 166°
2026-04-23 20:09 49.46503 9.85029 24025 ft 382 kts 166°
2026-04-23 20:10 49.44738 9.85516 23713 ft 381 kts 166°
2026-04-23 20:10 49.41300 9.86464 23109 ft 377 kts 166°
2026-04-23 20:10 49.38731 9.87171 22663 ft 373 kts 166°
2026-04-23 20:10 49.36183 9.87869 22214 ft 370 kts 166°
2026-04-23 20:11 49.33659 9.88561 21768 ft 368 kts 166°
2026-04-23 20:11 49.31145 9.89251 21305 ft 366 kts 166°
2026-04-23 20:11 49.28651 9.89936 20833 ft 364 kts 166°
2026-04-23 20:11 49.26162 9.90620 20382 ft 362 kts 166°
2026-04-23 20:12 49.23687 9.91301 19916 ft 361 kts 167°
2026-04-23 20:12 49.21179 9.91577 19448 ft 364 kts 182°
2026-04-23 20:12 49.18722 9.90667 18974 ft 366 kts 202°
2026-04-23 20:12 49.16574 9.88598 18488 ft 366 kts 223°
2026-04-23 20:13 49.14975 9.85607 17960 ft 363 kts 242°
2026-04-23 20:13 49.14003 9.82094 17493 ft 358 kts 252°
2026-04-23 20:13 49.13153 9.78537 17007 ft 355 kts 252°
2026-04-23 20:13 49.12302 9.75011 16534 ft 353 kts 251°
2026-04-23 20:14 49.11450 9.71505 16077 ft 351 kts 251°
2026-04-23 20:14 49.10599 9.68027 15597 ft 349 kts 251°
2026-04-23 20:14 49.09754 9.64571 15145 ft 347 kts 251°
2026-04-23 20:14 49.08914 9.61126 14680 ft 346 kts 251°
2026-04-23 20:15 49.08077 9.57694 14220 ft 344 kts 251°
2026-04-23 20:15 49.07253 9.54315 13733 ft 343 kts 251°
2026-04-23 20:15 49.06425 9.50926 13270 ft 339 kts 251°
2026-04-23 20:15 49.05376 9.47726 12806 ft 338 kts 237°
2026-04-23 20:16 49.03861 9.45000 12369 ft 337 kts 223°
2026-04-23 20:16 49.01982 9.42910 11933 ft 334 kts 210°
2026-04-23 20:16 48.99946 9.41221 11501 ft 332 kts 209°
2026-04-23 20:16 48.97927 9.39542 11068 ft 329 kts 209°
2026-04-23 20:17 48.95920 9.37872 10633 ft 327 kts 209°
2026-04-23 20:17 48.93947 9.36214 10407 ft 318 kts 212°
2026-04-23 20:17 48.92330 9.34053 10274 ft 305 kts 231°
2026-04-23 20:17 48.91021 9.31552 10272 ft 301 kts 234°
2026-04-23 20:18 48.89741 9.29031 10272 ft 301 kts 234°
2026-04-23 20:18 48.88472 9.26523 9979 ft 299 kts 234°
2026-04-23 20:18 48.87210 9.24026 9624 ft 297 kts 234°
2026-04-23 20:18 48.85956 9.21543 9260 ft 295 kts 233°
2026-04-23 20:19 48.84724 9.19073 8912 ft 293 kts 234°
2026-04-23 20:19 48.83502 9.16617 8562 ft 290 kts 234°
2026-04-23 20:19 48.82287 9.14179 8213 ft 289 kts 234°
2026-04-23 20:19 48.81080 9.11757 7873 ft 287 kts 234°
2026-04-23 20:20 48.79880 9.09353 7545 ft 285 kts 234°
2026-04-23 20:20 48.78688 9.06966 7232 ft 283 kts 234°
2026-04-23 20:20 48.77499 9.04581 6831 ft 284 kts 234°
2026-04-23 20:20 48.76304 9.02186 6371 ft 284 kts 234°
2026-04-23 20:21 48.75124 8.99824 5914 ft 279 kts 234°
2026-04-23 20:21 48.73961 8.97496 5447 ft 275 kts 234°
2026-04-23 20:21 48.73201 8.95974 5163 ft 273 kts 233°
2026-04-23 20:21 48.72071 8.93687 4694 ft 269 kts 234°
2026-04-23 20:22 48.70787 8.91677 4230 ft 264 kts 214°
2026-04-23 20:22 48.69151 8.90625 4013 ft 249 kts 189°
2026-04-23 20:22 48.67472 8.90638 4013 ft 241 kts 165°
2026-04-23 20:22 48.65962 8.91652 4022 ft 236 kts 141°
2026-04-23 20:23 48.64862 8.93443 4011 ft 232 kts 118°
2026-04-23 20:23 48.64316 8.95699 4019 ft 228 kts 95°
2026-04-23 20:23 48.64374 8.98042 4012 ft 219 kts 74°
2026-04-23 20:23 48.64780 9.00195 3929 ft 209 kts 71°
2026-04-23 20:24 48.65182 9.02274 3713 ft 204 kts 71°
2026-04-23 20:24 48.65573 9.04309 3461 ft 199 kts 71°
2026-04-23 20:24 48.65954 9.06298 3219 ft 192 kts 71°
2026-04-23 20:24 48.66315 9.08186 2939 ft 184 kts 71°
2026-04-23 20:25 48.66665 9.10014 2690 ft 174 kts 71°
2026-04-23 20:25 48.66982 9.11659 2501 ft 150 kts 71°
2026-04-23 20:25 48.67265 9.13080 2263 ft 137 kts 72°
2026-04-23 20:25 48.67526 9.14446 2083 ft 134 kts 71°
2026-04-23 20:26 48.67779 9.15791 1896 ft 132 kts 72°
2026-04-23 20:26 48.68024 9.17137 1739 ft 133 kts 72°
2026-04-23 20:26 48.68276 9.18476 1571 ft 133 kts 71°
2026-04-23 20:26 48.68537 9.19822 1409 ft 133 kts 71°
2026-04-23 20:27 48.68793 9.21160 1288 ft 128 kts 72°
2026-04-23 20:27 48.69001 9.22268 1286 ft 81 kts 75°
2026-04-23 20:27 48.69085 9.22550 1287 ft 10 kts 348°
2026-04-23 20:27 48.69164 9.22521 1285 ft 14 kts 341°
2026-04-23 20:28 48.69262 9.22475 1287 ft 16 kts 334°
2026-04-23 20:28 48.69274 9.22315 1287 ft 18 kts 253°
2026-04-23 20:28 48.69231 9.22115 1289 ft 22 kts 252°
2026-04-23 20:28 48.69185 9.21881 1285 ft 25 kts 257°
2026-04-23 20:29 48.69139 9.21607 1286 ft 29 kts 253°
2026-04-23 20:29 48.69076 9.21297 1288 ft 33 kts 253°
2026-04-23 20:29 48.69012 9.20955 1287 ft 32 kts 254°
2026-04-23 20:29 48.68962 9.20690 1285 ft 6 kts 254°
2026-04-23 20:30 48.68943 9.20586 1287 ft 9 kts 253°
2026-04-23 20:30 48.68940 9.20571 1288 ft 10 kts 253°
2026-04-23 20:31 48.68916 9.20455 1288 ft 13 kts 252°
2026-04-23 20:31 48.68889 9.20304 1288 ft 17 kts 254°
2026-04-23 20:31 48.68853 9.20120 1287 ft 20 kts 253°
2026-04-23 20:31 48.68832 9.19913 1290 ft 21 kts 311°
2026-04-23 20:32 48.68876 9.19745 1285 ft 22 kts 253°
2026-04-23 20:32 48.68830 9.19511 1289 ft 17 kts 253°
2026-04-23 20:32 48.68809 9.19401 1285 ft 5 kts 259°
2026-04-23 20:32 48.68836 9.19381 1287 ft 6 kts 341°
2026-04-23 20:33 48.68881 9.19361 1287 ft 1 kts 343°
2026-04-23 20:33 48.68883 9.19360 1286 ft 0 kts 343°